Weather History for Wahoo, NE

Change the Weather History Date:

Wednesday, April 23, 2014

  Actual Average Record
Temperature  
Mean Temperature 55 °F -  
Max Temperature 61 °F 68 °F 93 °F (1989)
Min Temperature 49 °F 41 °F 28 °F (2013)
Degree Days  
Heating Degree Days 10    
Growing Degree Days 5 (Base 50)    
Moisture  
Dew Point 41 °F    
Average Humidity 62    
Maximum Humidity 82    
Minimum Humidity 47    
Precipitation  
Precipitation 0.05 in - - ()
Sea Level Pressure  
Sea Level Pressure 29.78 in    
Wind  
Wind Speed 16 mph (SE)    
Max Wind Speed 37 mph    
Max Gust Speed 44 mph    
Visibility 10 miles    
Events Rain    
Averages and records for this station are not official NWS values.
T = Trace of Precipitation, MM = Missing Value Source: NWS Daily Summary

Daily Weather History Graph

Daily Weather History Graph

Search for Another Location

Airport:

Trip Planner

Search our weather history database for the weather conditions in past years. The results will help you decide how hot, cold, wet, or windy it might be!

Date:

Astronomy

Apr. 23, 2014 Rise Set
Actual Time 6:34 AM CDT 8:15 PM CDT
Civil Twilight 6:05 AM CDT 8:44 PM CDT
Nautical Twilight 5:30 AM CDT 9:20 PM CDT
Astronomical Twilight 4:52 AM CDT 9:58 PM CDT
Moon 3:11 AM CDT (4/23) 2:21 PM CDT (4/23)
Length of Visible Light 14h 38m
Length of Day
13h 40m
Waning Crescent, 34% of the Moon is Illuminated
Apr 23
Waning Crescent
Apr 29
New
May 6
First Quarter
May 14
Full
May 21
Last Quarter

Hourly Weather History & Observations

Time (CDT) Temp. Dew Point Humidity Pressure Visibility Wind Dir Wind Speed Gust Speed Precip Events Conditions
12:15 AM 52.3 °F 33.1 °F 48% 29.95 in 10.0 mi ESE 9.2 mph - N/A   Clear
12:35 AM 50.9 °F 33.3 °F 51% 29.95 in 10.0 mi SE 9.2 mph - N/A   Scattered Clouds
12:55 AM 51.3 °F 33.8 °F 51% 29.95 in 10.0 mi SE 9.2 mph - N/A   Mostly Cloudy
1:15 AM 51.4 °F 34.7 °F 53% 29.95 in 10.0 mi SE 8.1 mph - N/A   Overcast
1:35 AM 51.1 °F 35.1 °F 54% 29.95 in 10.0 mi SE 6.9 mph - N/A   Mostly Cloudy
1:55 AM 52.3 °F 35.1 °F 52% 29.94 in 10.0 mi ESE 9.2 mph - N/A   Overcast
2:15 AM 52.7 °F 34.7 °F 50% 29.92 in 10.0 mi ESE 11.5 mph - N/A   Overcast
2:35 AM 52.0 °F 34.7 °F 52% 29.92 in 10.0 mi ESE 11.5 mph - N/A   Mostly Cloudy
2:55 AM 52.3 °F 34.7 °F 51% 29.92 in 10.0 mi SE 12.7 mph - N/A   Mostly Cloudy
3:15 AM 52.9 °F 34.2 °F 49% 29.90 in 10.0 mi SE 15.0 mph - N/A   Mostly Cloudy
3:35 AM 53.1 °F 33.8 °F 48% 29.90 in 10.0 mi SE 13.8 mph - N/A   Scattered Clouds
3:55 AM 52.2 °F 33.8 °F 50% 29.90 in 10.0 mi SE 13.8 mph - N/A   Scattered Clouds
4:15 AM 51.4 °F 34.3 °F 52% 29.91 in 10.0 mi SE 12.7 mph - N/A   Scattered Clouds
4:35 AM 52.3 °F 33.8 °F 49% 29.91 in 10.0 mi SE 13.8 mph - N/A   Clear
4:55 AM 52.9 °F 33.8 °F 48% 29.90 in 10.0 mi SE 15.0 mph - N/A   Mostly Cloudy
5:15 AM 53.1 °F 33.8 °F 48% 29.89 in 10.0 mi SE 16.1 mph 19.6 mph N/A   Mostly Cloudy
5:35 AM 53.2 °F 33.6 °F 47% 29.89 in 10.0 mi SE 16.1 mph 21.9 mph N/A   Mostly Cloudy
5:55 AM 53.2 °F 33.4 °F 47% 29.90 in 10.0 mi SE 12.7 mph - N/A   Overcast
6:15 AM 52.9 °F 33.3 °F 47% 29.90 in 10.0 mi SE 16.1 mph 19.6 mph N/A   Scattered Clouds
6:35 AM 52.9 °F 33.3 °F 47% 29.90 in 10.0 mi SE 15.0 mph 19.6 mph N/A   Clear
6:55 AM 52.7 °F 33.8 °F 49% 29.88 in 10.0 mi SE 18.4 mph - N/A   Scattered Clouds
7:15 AM 51.6 °F 37.9 °F 60% 29.90 in 10.0 mi SE 19.6 mph - N/A Rain Light Rain
7:35 AM 50.7 °F 39.2 °F 65% 29.88 in 10.0 mi SE 21.9 mph - N/A Rain Light Rain
7:55 AM 49.8 °F 40.1 °F 69% 29.88 in 10.0 mi SE 20.7 mph - N/A   Light Drizzle
8:15 AM 50.7 °F 39.7 °F 66% 29.87 in 10.0 mi SE 23.0 mph 32.2 mph N/A   Overcast
8:35 AM 51.3 °F 39.6 °F 64% 29.87 in 10.0 mi SE 24.2 mph 33.4 mph N/A   Overcast
8:55 AM 51.1 °F 39.7 °F 65% 29.86 in 10.0 mi SE 25.3 mph 34.5 mph N/A   Overcast
9:15 AM 50.2 °F 41.0 °F 71% 29.85 in 10.0 mi SE 27.6 mph 33.4 mph N/A Rain Light Rain
9:35 AM 49.1 °F 41.9 °F 76% 29.84 in 10.0 mi SE 25.3 mph 29.9 mph 0.01 in Rain Rain
9:55 AM 49.1 °F 41.4 °F 75% 29.83 in 10.0 mi SE 21.9 mph 31.1 mph 0.01 in Rain Light Rain
10:15 AM 50.0 °F 41.7 °F 73% 29.82 in 10.0 mi SE 23.0 mph 32.2 mph N/A   Overcast
10:35 AM 51.8 °F 42.6 °F 71% 29.81 in 10.0 mi SE 25.3 mph 34.5 mph N/A   Mostly Cloudy
10:55 AM 52.7 °F 41.7 °F 66% 29.80 in 10.0 mi SE 32.2 mph 39.1 mph N/A Rain Light Rain
11:15 AM 52.0 °F 41.9 °F 69% 29.80 in 10.0 mi SE 27.6 mph 39.1 mph N/A   Mostly Cloudy
11:35 AM 53.1 °F 41.9 °F 66% 29.78 in 10.0 mi SE 27.6 mph 35.7 mph N/A   Mostly Cloudy
11:55 AM 53.6 °F 42.1 °F 65% 29.77 in 10.0 mi SE 29.9 mph 41.4 mph N/A   Mostly Cloudy
12:15 PM 54.1 °F 42.6 °F 65% 29.75 in 10.0 mi SE 33.4 mph 42.6 mph N/A   Scattered Clouds
12:35 PM 55.9 °F 42.8 °F 61% 29.73 in 10.0 mi SE 36.8 mph 43.7 mph N/A   Scattered Clouds
1:15 PM 55.6 °F 41.0 °F 58% 29.71 in 10.0 mi SSE 34.5 mph 40.3 mph N/A   Mostly Cloudy
1:35 PM 55.9 °F 42.8 °F 61% 29.70 in 10.0 mi SE 29.9 mph 39.1 mph N/A   Overcast
1:55 PM 56.3 °F 42.8 °F 61% 29.70 in 10.0 mi SSE 23.0 mph 29.9 mph N/A   Overcast
2:15 PM 57.9 °F 43.9 °F 60% 29.70 in 10.0 mi SE 24.2 mph 31.1 mph N/A Rain Light Rain
2:55 PM 59.0 °F 43.7 °F 57% 29.70 in 10.0 mi SSE 25.3 mph 28.8 mph N/A   Clear
3:15 PM 59.2 °F 43.9 °F 57% 29.69 in 10.0 mi SSE 24.2 mph 32.2 mph N/A   Clear
3:35 PM 58.3 °F 43.7 °F 58% 29.69 in 10.0 mi SSE 21.9 mph - N/A   Clear
3:55 PM 60.1 °F 42.6 °F 53% 29.68 in 10.0 mi SSE 25.3 mph 32.2 mph N/A   Clear
4:15 PM 57.7 °F 43.9 °F 60% 29.66 in 10.0 mi SSE 20.7 mph 28.8 mph N/A   Scattered Clouds
4:35 PM 60.8 °F 43.9 °F 54% 29.65 in 10.0 mi SE 18.4 mph 29.9 mph N/A   Clear
4:55 PM 61.0 °F 43.2 °F 52% 29.65 in 10.0 mi SSE 24.2 mph 33.4 mph N/A   Scattered Clouds
5:15 PM 61.0 °F 43.9 °F 53% 29.65 in 10.0 mi SE 23.0 mph 28.8 mph N/A   Scattered Clouds
5:35 PM 60.1 °F 43.5 °F 54% 29.64 in 10.0 mi SE 19.6 mph 32.2 mph N/A   Scattered Clouds
5:55 PM 59.5 °F 43.9 °F 56% 29.63 in 10.0 mi SE 23.0 mph 31.1 mph N/A   Scattered Clouds
6:15 PM 58.6 °F 44.2 °F 59% 29.62 in 10.0 mi SE 23.0 mph 28.8 mph N/A   Clear
6:35 PM 58.3 °F 44.1 °F 59% 29.62 in 10.0 mi ESE 19.6 mph 25.3 mph N/A   Scattered Clouds
6:55 PM 57.2 °F 44.6 °F 63% 29.63 in 10.0 mi ESE 12.7 mph - N/A   Mostly Cloudy
7:15 PM 55.8 °F 46.2 °F 70% 29.62 in 10.0 mi East 11.5 mph - N/A Rain Light Rain
7:35 PM 54.9 °F 47.1 °F 75% 29.65 in 10.0 mi North 11.5 mph - N/A Rain Rain
7:55 PM 54.5 °F 46.8 °F 75% 29.63 in 10.0 mi NNE 9.2 mph - 0.02 in Rain Light Rain
8:15 PM 53.6 °F 47.1 °F 79% 29.63 in 10.0 mi NE 12.7 mph - N/A Rain Light Rain
8:35 PM 53.8 °F 46.4 °F 76% 29.61 in 10.0 mi ENE 16.1 mph 19.6 mph N/A Rain Light Rain
8:55 PM 53.6 °F 46.2 °F 76% 29.60 in 10.0 mi ENE 16.1 mph 20.7 mph N/A   Mostly Cloudy
9:15 PM 53.8 °F 46.0 °F 75% 29.63 in 10.0 mi NE 9.2 mph - N/A Rain Light Rain
9:55 PM 52.5 °F 46.6 °F 80% 29.67 in 10.0 mi North 13.8 mph - N/A Rain Light Rain
10:15 PM 52.9 °F 46.8 °F 80% 29.72 in 10.0 mi NNW 18.4 mph 27.6 mph N/A Rain Light Rain
10:35 PM 52.5 °F 47.1 °F 82% 29.70 in 10.0 mi North 17.3 mph - 0.01 in Rain Light Rain
10:55 PM 52.3 °F 46.8 °F 81% 29.68 in 10.0 mi North 19.6 mph 24.2 mph 0.02 in Rain Light Rain
11:15 PM 51.8 °F 46.2 °F 81% 29.66 in 10.0 mi NNE 19.6 mph 25.3 mph N/A   Scattered Clouds
11:35 PM 51.8 °F 45.5 °F 79% 29.69 in 10.0 mi North 17.3 mph - N/A   Mostly Cloudy
11:55 PM 51.4 °F 45.3 °F 80% 29.70 in 10.0 mi North 15.0 mph - N/A Rain Light Rain